| time (UTC) | temp C | wind direction | speed KPH | gust KPH | rain 1hr cm | rain 24hr cm | rain mn cm | humidity % | barometer mb |
| 20260509234832 | 14 | 4.8 | 4.8 | 0.00 | 0.00 | 0.00 | 99 | ||
| 20260509230812 | 15 | 4.8 | 4.8 | 0.00 | 0.00 | 0.00 | 99 | ||
| 20260509225812 | 15 | 4.8 | 4.8 | 0.00 | 0.00 | 0.00 | 99 | ||
| 20260509224953 | 15 | 3.2 | 3.2 | 0.00 | 0.00 | 0.00 | 99 | ||
| 20260509223831 | 15 | 4.8 | 4.8 | 0.00 | 0.00 | 0.00 | 99 | ||
| 20260509222811 | 16 | 8.0 | 8.0 | 0.00 | 0.00 | 0.00 | 99 | ||
| 20260509221831 | 17 | 8.0 | 8.0 | 0.00 | 0.00 | 0.00 | 99 | ||
| 20260509220811 | 17 | 6.4 | 6.4 | 0.00 | 0.00 | 0.00 | 99 | ||
| 20260509212812 | 18 | 6.4 | 6.4 | 0.00 | 0.00 | 0.00 | 99 | ||
| 20260509211812 | 18 | 3.2 | 3.2 | 0.00 | 0.00 | 0.00 | 99 | ||
| 20260509210810 | 19 | 4.8 | 4.8 | 0.00 | 0.00 | 0.00 | 99 | ||
| 20260509205810 | 20 | 6.4 | 6.4 | 0.00 | 0.00 | 0.00 | 99 | ||
| 20260509200312 | 21 | 4.8 | 4.8 | 0.00 | 0.00 | 0.00 | 99 | ||
| 20260509194812 | 22 | 8.0 | 9.7 | 0.00 | 0.00 | 0.00 | 98 | ||
| 20260509182313 | 22 | 8.0 | 8.0 | 0.00 | 0.00 | 0.00 | 90 | ||
| 20260509181313 | 22 | 4.8 | 4.8 | 0.00 | 0.00 | 0.00 | 91 | ||
| 20260509180312 | 22 | 8.0 | 8.0 | 0.00 | 0.00 | 0.00 | 92 | ||
| 20260509175310 | 21 | 4.8 | 4.8 | 0.00 | 0.00 | 0.00 | 93 | ||
| 20260509174310 | 21 | 8.0 | 11.3 | 0.00 | 0.00 | 0.00 | 92 | ||
| 20260509165811 | 21 | 4.8 | 4.8 | 0.00 | 0.00 | 0.00 | 95 | ||
| 20260509164813 | 22 | 4.8 | 4.8 | 0.00 | 0.00 | 0.00 | 96 | ||
| 20260509163810 | 20 | 1.6 | 1.6 | 0.00 | 0.00 | 0.00 | 99 | ||
| 20260509151811 | 20 | 9.7 | 9.7 | 0.00 | 0.00 | 0.00 | 99 | ||
| 20260509144722 | 17 | 3.2 | 3.2 | 0.00 | 0.00 | 0.00 | 99 | ||
| 20260509135811 | 12 | 3.2 | 3.2 | 0.00 | 0.00 | 0.00 | 99 | ||
| 20260509133312 | 12 | 3.2 | 3.2 | 0.00 | 0.00 | 0.00 | 99 | ||
| 20260509132311 | 11 | 3.2 | 3.2 | 0.00 | 0.00 | 0.00 | 99 | ||
| 20260509131311 | 11 | 1.6 | 1.6 | 0.00 | 0.00 | 0.00 | 99 | ||
| 20260509125312 | 11 | 3.2 | 3.2 | 0.00 | 0.00 | 0.00 | 99 | ||
| 20260509124613 | 7 | 4.8 | 8.0 | 0.00 | 0.00 | 0.00 | 99 |